Weather History for KSMO - June, 2013

Change the Weather History Date:

Tuesday, June 25, 2013

  Actual Average Record
Temperature  
Mean Temperature 66 °F -  
Max Temperature 70 °F 78 °F 89 °F (2000)
Min Temperature 64 °F 60 °F 50 °F (1955)
Cooling Degree Days 2    
Growing Degree Days 16 (Base 50)    
Moisture  
Dew Point 60 °F    
Average Humidity 80    
Maximum Humidity 88    
Minimum Humidity 73    
Precipitation  
Precipitation 0.00 in - - ()
Sea Level Pressure  
Sea Level Pressure 29.96 in    
Wind  
Wind Speed 5 mph (SSW)    
Max Wind Speed 10 mph    
Max Gust Speed -    
Visibility 10 miles    
Events      
Averages and records for this station are not official NWS values.
T = Trace of Precipitation, MM = Missing Value Source: NWS Daily Summary

Daily Weather History Graph

Daily Weather History Graph

Search for Another Location

Airport or City:

Trip Planner

Search our weather history database for the weather conditions in past years. The results will help you decide how hot, cold, wet, or windy it might be!

Date:

Astronomy

Jun. 25, 2013 Rise Set
Actual Time 5:44 AM PDT 8:08 PM PDT
Civil Twilight 5:14 AM PDT 8:38 PM PDT
Nautical Twilight 4:38 AM PDT 9:14 PM PDT
Astronomical Twilight 3:59 AM PDT 9:53 PM PDT
Moon 10:07 PM PDT (6/25) 8:22 AM PDT (6/25)
Length of Visible Light 15h 23m
Length of Day
14h 24m
Waning Gibbous, 92% of the Moon is Illuminated
Jun 25
Waning Gibbous
Jun 29
Last Quarter
Jul 8
New
Jul 15
First Quarter
Jul 22
Full

Hourly Weather History & Observations

Time (PDT) Temp. Dew Point Humidity Pressure Visibility Wind Dir Wind Speed Gust Speed Precip Events Conditions
12:51 AM 64.9 °F 60.1 °F 84% 29.93 in 10.0 mi SW 4.6 mph - N/A   Mostly Cloudy
1:51 AM 64.9 °F 61.0 °F 87% 29.93 in 10.0 mi South 3.5 mph - N/A   Mostly Cloudy
2:51 AM 64.9 °F 61.0 °F 87% 29.94 in 10.0 mi SSE 3.5 mph - N/A   Overcast
3:51 AM 64.9 °F 61.0 °F 87% 29.94 in 10.0 mi South 4.6 mph - N/A   Overcast
4:51 AM 64.9 °F 60.1 °F 84% 29.95 in 10.0 mi South 4.6 mph - N/A   Mostly Cloudy
5:31 AM 64.4 °F 60.8 °F 88% 29.96 in 10.0 mi SSE 3.5 mph - N/A   Overcast
5:51 AM 64.0 °F 60.1 °F 87% 29.96 in 10.0 mi Calm Calm - N/A   Overcast
6:04 AM 64.4 °F 60.8 °F 88% 29.96 in 10.0 mi East 3.5 mph - N/A   Overcast
6:51 AM 64.0 °F 60.1 °F 87% 29.97 in 10.0 mi SSE 5.8 mph - N/A   Overcast
7:51 AM 64.9 °F 59.0 °F 81% 29.99 in 10.0 mi SSE 3.5 mph - N/A   Overcast
8:51 AM 66.0 °F 59.0 °F 78% 30.00 in 10.0 mi South 3.5 mph - N/A   Overcast
9:32 AM 66.2 °F 59.0 °F 78% 30.01 in 10.0 mi SSW 8.1 mph - N/A   Overcast
9:51 AM 66.0 °F 59.0 °F 78% 30.00 in 10.0 mi SSW 4.6 mph - N/A   Overcast
10:51 AM 66.9 °F 59.0 °F 76% 30.01 in 10.0 mi SW 6.9 mph - N/A   Overcast
11:51 AM 69.1 °F 60.1 °F 73% 30.01 in 10.0 mi SW 9.2 mph - N/A   Overcast
12:51 PM 68.0 °F 60.1 °F 76% 30.00 in 10.0 mi West 8.1 mph - N/A   Overcast
1:51 PM 66.9 °F 60.1 °F 79% 30.00 in 10.0 mi SW 10.4 mph - N/A   Overcast
2:51 PM 66.9 °F 60.1 °F 79% 29.98 in 10.0 mi SW 8.1 mph - N/A   Overcast
2:59 PM 68.0 °F 60.8 °F 78% 29.98 in 10.0 mi WSW 9.2 mph - N/A   Overcast
3:27 PM 69.8 °F 60.8 °F 73% 29.97 in 10.0 mi SW 6.9 mph - N/A   Scattered Clouds
3:51 PM 69.1 °F 60.1 °F 73% 29.96 in 10.0 mi SW 8.1 mph - N/A   Scattered Clouds
4:51 PM 69.1 °F 60.1 °F 73% 29.94 in 10.0 mi SW 6.9 mph - N/A   Scattered Clouds
5:51 PM 68.0 °F 59.0 °F 73% 29.93 in 10.0 mi SSW 6.9 mph - N/A   Scattered Clouds
6:13 PM 68.0 °F 59.0 °F 73% 29.92 in 10.0 mi SW 5.8 mph - N/A   Scattered Clouds
6:51 PM 66.0 °F 59.0 °F 78% 29.92 in 10.0 mi SW 6.9 mph - N/A   Partly Cloudy
7:51 PM 66.0 °F 60.1 °F 81% 29.91 in 10.0 mi SW 3.5 mph - N/A   Partly Cloudy
8:51 PM 64.9 °F 60.1 °F 84% 29.91 in 10.0 mi SSW 3.5 mph - N/A   Clear
9:51 PM 66.0 °F 59.0 °F 78% 29.93 in 10.0 mi Calm Calm - N/A   Clear
10:51 PM 64.9 °F 60.1 °F 84% 29.94 in 10.0 mi WSW 5.8 mph - N/A   Clear
11:51 PM 64.9 °F 60.1 °F 84% 29.94 in 10.0 mi WSW 3.5 mph - N/A   Clear